sat.trackr.live / text

‹ back to catalog

NAVSTAR 66 (USA 232)

NORAD 37753 · 2011-036A

PAYLOAD ACTIVE UNKNOWN

§ Identity

Operator
Country
US
Launch date
2011-07-16
Launch site
AFETR
Launch vehicle
Mass (kg)
RCS (m²)
12.59

External: N2YO · Heavens-Above · Gunter

§ Orbital elements

Epoch: 2026-05-25T04:20:11.577120Z

Period
717.98 min
Inclination
56.5755°
Eccentricity
0.0142029
Mean motion
2.00562554 rev/d
Perigee alt
19,805.1 km
Apogee alt
20,559.5 km
Semi-major
26,560.4 km
B*
0.0000e+0
RAAN
332.9142°
Arg perigee
62.2112°
Mean anomaly
118.1066°
Rev number
10,881

§ Raw data

NAVSTAR 66 (USA 232)1 37753U 11036A   26145.18068955 -.00000084  00000+0  00000+0 0  99972 37753  56.5755 332.9142 0142029  62.2112 118.1066  2.00562554108816

JSON: /api/v1/satellites/37753 · /tle

For live sub-satellite position, see the globe view (requires WebGL).

§ Visibility from observer

Set your observer location to see the next 7 days of passes ≥ 10°. The values pass through the URL so the page stays shareable.

No JS? Fill the form by hand. The geolocation button needs JavaScript.